Location: Ciserano
(45.5833°N, 9.6000°E)
Time: 09:14:59
(UTC+00:00)

RESURS DK-1 - Pass Details

Date: 29 November 2020
Orbit: 557 x 560 km, 69.9° (Epoch: 25 January)

Event Time Altitude Azimuth Distance (km) Brightness Sun altitude
Exits shadow 04:27:11 - 194° (SSW) 1,991 5.1 -22.5°
Reaches altitude 10° 04:27:33 10° 193° (SSW) 1,843 4.9 -22.5°
Maximum altitude 04:31:36 60° 114° (ESE) 645 2.8 -21.8°
Drops below altitude 10° 04:35:42 10° 34° (NE) 1,859 5.3 -21.1°
Sets 04:37:56 0° 31° (NNE) 2,759 6.2 -20.7°
